Time,TemperatureF,DewpointF,PressureIn,WindDirection,WindDirectionDegrees,WindSpeedMPH,WindSpeedGustMPH,Humidity,HourlyPrecipIn,Conditions,Clouds,dailyrainin,SoftwareType,DateUTC
2013-12-02 07:12:00,45.3,28.2,30.16,North,0,0.0,0.0,51,0.00,,,0.00,WUHU21623XXSP,2013-12-02 15:12:00,
2013-12-02 07:17:00,45.7,28.6,30.16,North,0,0.0,0.0,51,0.00,,,0.00,WUHU21623XXSP,2013-12-02 15:17:00,
2013-12-02 07:22:00,46.2,28.6,30.16,North,0,0.0,0.0,50,0.00,,,0.00,WUHU21623XXSP,2013-12-02 15:22:00,
2013-12-02 07:27:00,46.6,28.9,30.16,North,0,0.0,0.0,50,0.00,,,0.00,WUHU21623XXSP,2013-12-02 15:27:00,
2013-12-02 07:32:00,46.8,29.1,30.16,North,0,0.0,0.0,50,0.00,,,0.00,WUHU21623XXSP,2013-12-02 15:32:00,
2013-12-02 07:35:00,47.1,28.9,30.16,North,0,0.0,0.0,49,0.00,,,0.00,WUHU21623XXSP,2013-12-02 15:35:00,
2013-12-02 17:36:00,55.4,30.8,30.00,North,0,0.0,0.0,39,0.00,,,0.00,WUHU21623XXSP,2013-12-03 01:36:00,
2013-12-02 17:41:00,55.0,30.4,30.01,North,0,0.0,0.0,39,0.00,,,0.00,WUHU21623XXSP,2013-12-03 01:41:00,
2013-12-02 17:46:00,55.0,30.4,30.01,North,0,0.0,0.0,39,0.00,,,0.00,WUHU21623XXSP,2013-12-03 01:46:00,
2013-12-02 17:51:00,55.0,30.4,30.00,North,0,0.0,0.0,39,0.00,,,0.00,WUHU21623XXSP,2013-12-03 01:51:00,
2013-12-02 17:56:00,53.8,30.6,30.00,North,0,0.0,0.0,41,0.00,,,0.00,WUHU21623XXSP,2013-12-03 01:56:00,
2013-12-02 18:01:00,53.2,30.6,30.01,North,0,0.0,0.0,42,0.00,,,0.00,WUHU21623XXSP,2013-12-03 02:01:00,
2013-12-02 18:06:00,52.9,30.3,30.01,North,0,0.0,0.0,42,0.00,,,0.00,WUHU21623XXSP,2013-12-03 02:06:00,
2013-12-02 18:11:00,52.3,30.4,30.01,North,0,0.0,0.0,43,0.00,,,0.00,WUHU21623XXSP,2013-12-03 02:11:00,
2013-12-02 18:16:00,51.8,29.9,30.01,North,0,0.0,0.0,43,0.00,,,0.00,WUHU21623XXSP,2013-12-03 02:16:00,
2013-12-02 18:21:00,51.4,30.1,30.01,North,0,0.0,0.0,44,0.00,,,0.00,WUHU21623XXSP,2013-12-03 02:21:00,
2013-12-02 18:26:00,50.9,30.2,30.01,North,0,0.0,0.0,45,0.00,,,0.00,WUHU21623XXSP,2013-12-03 02:26:00,
2013-12-02 18:31:00,50.7,30.6,30.01,North,0,0.0,0.0,46,0.00,,,0.00,WUHU21623XXSP,2013-12-03 02:31:00,
2013-12-02 18:34:00,50.5,30.4,30.01,North,0,0.0,0.0,46,0.00,,,0.00,WUHU21623XXSP,2013-12-03 02:34:00,
2013-12-02 19:01:00,50.5,31.0,30.02,North,0,0.0,0.0,47,0.00,,,0.00,WUHU21623XXSP,2013-12-03 03:01:00,
2013-12-02 19:06:00,50.4,30.8,30.02,North,0,0.0,0.0,47,0.00,,,0.00,WUHU21623XXSP,2013-12-03 03:06:00,
2013-12-02 19:11:00,50.4,30.3,29.99,North,0,0.0,0.0,46,0.00,,,0.00,WUHU21623XXSP,2013-12-03 03:11:00,
2013-12-02 19:16:00,50.2,30.3,29.99,North,0,0.0,0.0,46,0.00,,,0.00,WUHU21623XXSP,2013-12-03 03:16:00,
2013-12-02 19:21:00,50.2,30.1,29.99,North,0,0.0,0.0,46,0.00,,,0.00,WUHU21623XXSP,2013-12-03 03:21:00,
2013-12-02 19:26:00,49.8,29.8,29.99,North,0,0.0,0.0,46,0.00,,,0.00,WUHU21623XXSP,2013-12-03 03:26:00,
2013-12-02 19:31:00,49.8,29.8,29.99,North,0,0.0,0.0,46,0.00,,,0.00,WUHU21623XXSP,2013-12-03 03:31:00,
2013-12-02 19:36:00,49.8,29.2,29.99,North,0,0.0,0.0,45,0.00,,,0.00,WUHU21623XXSP,2013-12-03 03:36:00,
2013-12-02 19:41:00,49.6,29.0,29.99,North,0,0.0,0.0,45,0.00,,,0.00,WUHU21623XXSP,2013-12-03 03:41:00,
2013-12-02 19:46:00,49.8,29.2,29.99,North,0,0.0,0.0,45,0.00,,,0.00,WUHU21623XXSP,2013-12-03 03:46:00,
2013-12-02 19:51:00,50.2,29.0,29.99,North,0,0.0,0.0,44,0.00,,,0.00,WUHU21623XXSP,2013-12-03 03:51:00,
2013-12-02 19:56:00,50.4,28.6,29.99,North,0,0.0,0.0,43,0.00,,,0.00,WUHU21623XXSP,2013-12-03 03:56:00,
2013-12-02 20:01:00,50.7,28.6,29.98,North,0,0.0,0.0,42,0.00,,,0.00,WUHU21623XXSP,2013-12-03 04:01:00,
2013-12-02 20:06:00,50.9,28.4,29.98,North,0,0.0,0.0,42,0.00,,,0.00,WUHU21623XXSP,2013-12-03 04:06:00,
2013-12-02 20:11:00,50.5,28.2,29.98,North,0,0.0,0.0,42,0.00,,,0.00,WUHU21623XXSP,2013-12-03 04:11:00,
2013-12-02 20:16:00,50.4,28.6,29.98,North,0,0.0,0.0,43,0.00,,,0.00,WUHU21623XXSP,2013-12-03 04:16:00,
2013-12-02 20:21:00,50.2,28.4,29.97,North,0,0.0,0.0,43,0.00,,,0.00,WUHU21623XXSP,2013-12-03 04:21:00,
2013-12-02 20:26:00,49.8,28.7,29.97,North,0,0.0,0.0,44,0.00,,,0.00,WUHU21623XXSP,2013-12-03 04:26:00,
2013-12-02 20:31:00,49.3,28.7,29.97,North,0,0.0,0.0,45,0.00,,,0.00,WUHU21623XXSP,2013-12-03 04:31:00,
2013-12-02 20:36:00,48.7,28.9,29.96,North,0,0.0,0.0,46,0.00,,,0.00,WUHU21623XXSP,2013-12-03 04:36:00,
2013-12-02 20:41:00,48.4,28.9,29.97,North,0,0.0,0.0,47,0.00,,,0.00,WUHU21623XXSP,2013-12-03 04:41:00,
2013-12-02 20:46:00,48.0,28.6,29.97,North,0,0.0,0.0,47,0.00,,,0.00,WUHU21623XXSP,2013-12-03 04:46:00,
2013-12-02 20:51:00,48.2,28.6,29.97,North,0,0.0,0.0,47,0.00,,,0.00,WUHU21623XXSP,2013-12-03 04:51:00,
2013-12-02 20:56:00,48.0,29.1,29.97,North,0,0.0,0.0,48,0.00,,,0.00,WUHU21623XXSP,2013-12-03 04:56:00,
2013-12-02 21:01:00,47.8,29.5,29.96,North,0,0.0,0.0,49,0.00,,,0.00,WUHU21623XXSP,2013-12-03 05:01:00,
2013-12-02 21:06:00,47.3,29.6,29.96,North,0,0.0,0.0,50,0.00,,,0.00,WUHU21623XXSP,2013-12-03 05:06:00,
2013-12-02 21:11:00,47.1,29.9,29.96,North,0,0.0,0.0,51,0.00,,,0.00,WUHU21623XXSP,2013-12-03 05:11:00,
2013-12-02 21:16:00,47.1,29.9,29.96,North,0,0.0,0.0,51,0.00,,,0.00,WUHU21623XXSP,2013-12-03 05:16:00,
2013-12-02 21:21:00,47.5,29.7,29.96,North,0,0.0,0.0,50,0.00,,,0.00,WUHU21623XXSP,2013-12-03 05:21:00,
2013-12-02 21:26:00,47.5,29.7,29.96,North,0,0.0,0.0,50,0.00,,,0.00,WUHU21623XXSP,2013-12-03 05:26:00,
2013-12-02 21:31:00,47.3,30.0,29.96,North,0,0.0,0.0,51,0.00,,,0.00,WUHU21623XXSP,2013-12-03 05:31:00,
2013-12-02 21:36:00,47.1,29.9,29.96,North,0,0.0,0.0,51,0.00,,,0.00,WUHU21623XXSP,2013-12-03 05:36:00,
2013-12-02 21:41:00,47.1,29.9,29.95,North,0,0.0,0.0,51,0.00,,,0.00,WUHU21623XXSP,2013-12-03 05:41:00,
2013-12-02 21:46:00,46.8,30.0,29.95,North,0,0.0,0.0,52,0.00,,,0.00,WUHU21623XXSP,2013-12-03 05:46:00,
2013-12-02 21:51:00,46.9,30.0,29.95,North,0,0.0,0.0,52,0.00,,,0.00,WUHU21623XXSP,2013-12-03 05:51:00,
2013-12-02 21:56:00,47.1,30.3,29.96,North,0,0.0,0.0,52,0.00,,,0.00,WUHU21623XXSP,2013-12-03 05:56:00,
2013-12-02 22:01:00,47.1,30.3,29.96,North,0,0.0,0.0,52,0.00,,,0.00,WUHU21623XXSP,2013-12-03 06:01:00,
2013-12-02 22:06:00,46.9,30.1,29.96,North,0,0.0,0.0,52,0.00,,,0.00,WUHU21623XXSP,2013-12-03 06:06:00,
2013-12-02 22:11:00,47.1,30.3,29.96,North,0,0.0,0.0,52,0.00,,,0.00,WUHU21623XXSP,2013-12-03 06:11:00,
2013-12-02 22:16:00,47.1,30.3,29.96,North,0,0.0,0.0,52,0.00,,,0.00,WUHU21623XXSP,2013-12-03 06:16:00,
2013-12-02 22:21:00,46.8,30.4,29.96,North,0,0.0,0.0,53,0.00,,,0.00,WUHU21623XXSP,2013-12-03 06:21:00,
2013-12-02 22:26:00,46.6,30.3,29.96,North,0,0.0,0.0,53,0.00,,,0.00,WUHU21623XXSP,2013-12-03 06:26:00,
2013-12-02 22:31:00,46.0,29.9,29.96,North,0,0.0,0.0,53,0.00,,,0.00,WUHU21623XXSP,2013-12-03 06:31:00,
2013-12-02 22:36:00,45.7,29.9,29.96,North,0,0.0,0.0,54,0.00,,,0.00,WUHU21623XXSP,2013-12-03 06:36:00,
2013-12-02 22:41:00,45.7,30.4,29.96,North,0,0.0,0.0,55,0.00,,,0.00,WUHU21623XXSP,2013-12-03 06:41:00,
2013-12-02 22:46:00,45.7,30.4,29.95,North,0,0.0,0.0,55,0.00,,,0.00,WUHU21623XXSP,2013-12-03 06:46:00,
2013-12-02 22:51:00,45.9,30.5,29.95,North,0,0.0,0.0,55,0.00,,,0.00,WUHU21623XXSP,2013-12-03 06:51:00,
2013-12-02 22:56:00,46.0,30.7,29.95,North,0,0.0,0.0,55,0.00,,,0.00,WUHU21623XXSP,2013-12-03 06:56:00,
2013-12-02 23:02:00,46.2,30.8,29.95,North,0,0.0,0.0,54,0.00,,,0.00,WUHU21623XXSP,2013-12-03 07:02:00,
2013-12-02 23:07:00,46.2,30.4,29.95,North,0,0.0,0.0,55,0.00,,,0.00,WUHU21623XXSP,2013-12-03 07:07:00,
2013-12-02 23:12:00,46.2,30.8,29.95,North,0,0.0,0.0,55,0.00,,,0.00,WUHU21623XXSP,2013-12-03 07:12:00,
2013-12-02 23:17:00,46.0,30.7,29.95,North,0,0.0,0.0,55,0.00,,,0.00,WUHU21623XXSP,2013-12-03 07:17:00,
2013-12-02 23:22:00,45.7,30.7,29.95,North,0,0.0,0.0,55,0.00,,,0.00,WUHU21623XXSP,2013-12-03 07:22:00,
2013-12-02 23:27:00,45.1,30.0,29.94,North,0,0.0,0.0,56,0.00,,,0.00,WUHU21623XXSP,2013-12-03 07:27:00,
2013-12-02 23:32:00,45.0,30.2,29.94,North,0,0.0,0.0,56,0.00,,,0.00,WUHU21623XXSP,2013-12-03 07:32:00,
2013-12-02 23:37:00,44.8,30.5,29.95,North,0,0.0,0.0,57,0.00,,,0.00,WUHU21623XXSP,2013-12-03 07:37:00,
2013-12-02 23:42:00,44.8,30.5,29.95,North,0,0.0,0.0,57,0.00,,,0.00,WUHU21623XXSP,2013-12-03 07:42:00,
2013-12-02 23:47:00,44.8,30.5,29.95,North,0,0.0,0.0,57,0.00,,,0.00,WUHU21623XXSP,2013-12-03 07:47:00,
2013-12-02 23:52:00,45.1,30.3,29.95,North,0,0.0,0.0,56,0.00,,,0.00,WUHU21623XXSP,2013-12-03 07:52:00,
2013-12-02 23:57:00,45.1,30.3,29.95,North,0,0.0,0.0,56,0.00,,,0.00,WUHU21623XXSP,2013-12-03 07:57:00,